When you browse on this site, cookies collect data to enhance your experience and personalize the content and advertising you see.
Visit our Privacy Policy to learn more. By continuing to use the site, you agree to this use of cookies and data.
  • en Suisse
  • Liste des pays
  • À 7 jours
  • Température de l'eau
  • Carte météo
  • Widgets météo
  • user-avatar
    Se connecter

    Météo par heure à Lisburn

    Ce jour, 27 Mai, Mercredi

    Heure Température Précipitation Vent Pression Humidité
    00:00 +8°C° 0 mm 1 m/s 774 mmHg 91%
    01:00 +9°C° 0 mm 1 m/s 774 mmHg 90%
    02:00 +9°C° 0 mm 1 m/s 774 mmHg 89%
    03:00 +9°C° 0 mm 1 m/s 774 mmHg 89%
    04:00 +9°C° 0 mm 1 m/s 774 mmHg 87%
    05:00 +10°C° 0 mm 1 m/s 774 mmHg 85%
    06:00 +11°C° 0 mm 1 m/s 774 mmHg 83%
    07:00 +11°C° 0 mm 1 m/s 774 mmHg 84%
    08:00 +11°C° 0 mm 1 m/s 774 mmHg 84%
    09:00 +12°C° 0 mm 1 m/s 774 mmHg 85%
    10:00 +13°C° 0 mm 1 m/s 774 mmHg 81%
    11:00 +14°C° 0 mm 1 m/s 774 mmHg 78%
    12:00 +15°C° 0 mm 1 m/s 774 mmHg 75%
    13:00 +16°C° 0 mm 1 m/s 773 mmHg 74%
    14:00 +18°C° 0 mm 1 m/s 773 mmHg 73%
    15:00 +18°C° 0 mm 1 m/s 773 mmHg 72%
    16:00 +17°C° 0 mm 2 m/s 773 mmHg 74%
    17:00 +16°C° 0 mm 2 m/s 773 mmHg 77%
    18:00 +16°C° 0 mm 2 m/s 772 mmHg 79%
    19:00 +15°C° 0 mm 2 m/s 773 mmHg 82%
    20:00 +13°C° 0 mm 2 m/s 773 mmHg 85%
    21:00 +12°C° 0 mm 2 m/s 773 mmHg 88%
    22:00 +12°C° 0 mm 2 m/s 773 mmHg 87%
    23:00 +11°C° 0 mm 1 m/s 773 mmHg 87%

    Demain, 28 Mai, Jeudi

    Heure Température Précipitation Vent Pression Humidité
    00:00 +11°C° 0 mm 1 m/s 772 mmHg 86%
    01:00 +11°C° 0 mm 1 m/s 772 mmHg 87%
    02:00 +11°C° 0 mm 1 m/s 772 mmHg 87%
    03:00 +11°C° 0 mm 1 m/s 772 mmHg 88%
    04:00 +11°C° 0 mm 1 m/s 771 mmHg 86%
    05:00 +12°C° 0 mm 1 m/s 771 mmHg 85%
    06:00 +13°C° 0 mm 1 m/s 771 mmHg 83%
    07:00 +14°C° 0 mm 1 m/s 771 mmHg 80%
    08:00 +16°C° 0 mm 1 m/s 771 mmHg 76%
    09:00 +17°C° 0 mm 2 m/s 771 mmHg 73%
    10:00 +18°C° 0 mm 2 m/s 770 mmHg 72%
    11:00 +18°C° 0 mm 3 m/s 770 mmHg 71%
    12:00 +19°C° 0 mm 3 m/s 770 mmHg 70%
    13:00 +19°C° 0 mm 3 m/s 770 mmHg 70%
    14:00 +20°C° 0 mm 4 m/s 769 mmHg 71%
    15:00 +20°C° 0 mm 4 m/s 769 mmHg 71%
    16:00 +19°C° 0 mm 4 m/s 768 mmHg 73%
    17:00 +19°C° 0 mm 3 m/s 768 mmHg 76%
    18:00 +18°C° 0 mm 3 m/s 768 mmHg 78%
    19:00 +16°C° 0 mm 3 m/s 768 mmHg 82%
    20:00 +14°C° 0 mm 3 m/s 768 mmHg 85%
    21:00 +13°C° 0 mm 2 m/s 768 mmHg 89%
    22:00 +13°C° 0 mm 2 m/s 767 mmHg 88%
    23:00 +13°C° 0 mm 2 m/s 767 mmHg 88%

    Après-demain, 29 Mai, Vendredi

    Heure Température Précipitation Vent Pression Humidité
    00:00 +13°C° 0 mm 2 m/s 767 mmHg 87%
    01:00 +12°C° 0 mm 2 m/s 767 mmHg 87%
    02:00 +12°C° 0 mm 2 m/s 767 mmHg 88%
    03:00 +12°C° 0 mm 2 m/s 767 mmHg 88%
    04:00 +12°C° 0 mm 3 m/s 766 mmHg 87%
    05:00 +12°C° 0 mm 3 m/s 766 mmHg 87%
    06:00 +13°C° 0 mm 3 m/s 766 mmHg 87%
    07:00 +14°C° 0 mm 4 m/s 766 mmHg 79%
    08:00 +15°C° 0 mm 5 m/s 766 mmHg 71%
    09:00 +16°C° 0 mm 6 m/s 765 mmHg 63%
    10:00 +16°C° 0 mm 6 m/s 765 mmHg 62%
    11:00 +17°C° 0 mm 6 m/s 765 mmHg 62%
    12:00 +17°C° 0 mm 6 m/s 765 mmHg 61%
    13:00 +17°C° 0 mm 6 m/s 765 mmHg 61%
    14:00 +17°C° 0 mm 6 m/s 765 mmHg 61%
    15:00 +17°C° 0 mm 6 m/s 764 mmHg 62%
    16:00 +17°C° 0 mm 5 m/s 764 mmHg 65%
    17:00 +17°C° 0 mm 4 m/s 764 mmHg 68%
    18:00 +17°C° 0 mm 4 m/s 763 mmHg 71%
    19:00 +14°C° 0 mm 3 m/s 764 mmHg 74%
    20:00 +13°C° 0 mm 3 m/s 764 mmHg 76%
    21:00 +13°C° 0 mm 2 m/s 764 mmHg 79%
    22:00 +12°C° 0 mm 2 m/s 764 mmHg 78%
    23:00 +12°C° 0 mm 2 m/s 764 mmHg 78%

    30 Mai, Samedi

    Heure Température Précipitation Vent Pression Humidité
    00:00 +12°C° 0 mm 2 m/s 764 mmHg 78%
    01:00 +12°C° 0 mm 1 m/s 764 mmHg 79%
    02:00 +12°C° 0 mm 1 m/s 764 mmHg 80%
    03:00 +12°C° 0 mm 1 m/s 764 mmHg 81%
    04:00 +12°C° 0 mm 2 m/s 764 mmHg 82%
    05:00 +13°C° 0 mm 2 m/s 764 mmHg 83%
    06:00 +14°C° 0 mm 2 m/s 764 mmHg 84%
    07:00 +14°C° 0 mm 3 m/s 764 mmHg 81%
    08:00 +17°C° 0 mm 3 m/s 764 mmHg 78%
    09:00 +18°C° 0 mm 4 m/s 764 mmHg 75%
    10:00 +18°C° 0 mm 4 m/s 764 mmHg 72%
    11:00 +19°C° 0 mm 4 m/s 764 mmHg 70%
    12:00 +19°C° 0 mm 4 m/s 764 mmHg 68%
    13:00 +19°C° 0 mm 4 m/s 763 mmHg 67%
    14:00 +19°C° 0 mm 4 m/s 763 mmHg 65%
    15:00 +18°C° 0 mm 4 m/s 763 mmHg 64%
    16:00 +18°C° 0 mm 3 m/s 763 mmHg 66%
    17:00 +17°C° 0 mm 3 m/s 763 mmHg 68%
    18:00 +17°C° 0 mm 2 m/s 763 mmHg 70%
    19:00 +15°C° 0 mm 2 m/s 763 mmHg 71%
    20:00 +13°C° 0 mm 2 m/s 763 mmHg 73%
    21:00 +11°C° 0 mm 1 m/s 763 mmHg 74%
    22:00 +11°C° 0 mm 1 m/s 763 mmHg 74%
    23:00 +10°C° 0 mm 1 m/s 763 mmHg 74%

    31 Mai, Dimanche

    Heure Température Précipitation Vent Pression Humidité
    00:00 +10°C° 0 mm 1 m/s 763 mmHg 73%
    01:00 +10°C° 0 mm 1 m/s 763 mmHg 75%
    02:00 +10°C° 0 mm 1 m/s 763 mmHg 76%
    03:00 +8°C° 0 mm 0 m/s 763 mmHg 77%
    04:00 +10°C° 0 mm 0 m/s 763 mmHg 77%
    05:00 +11°C° 0 mm 0 m/s 763 mmHg 77%
    06:00 +12°C° 0 mm 0 m/s 763 mmHg 78%
    07:00 +14°C° 0 mm 1 m/s 763 mmHg 75%
    08:00 +16°C° 0 mm 1 m/s 763 mmHg 72%
    09:00 +17°C° 0 mm 2 m/s 763 mmHg 70%
    10:00 +18°C° 0 mm 2 m/s 763 mmHg 69%
    11:00 +19°C° 0 mm 2 m/s 763 mmHg 67%
    12:00 +19°C° 0 mm 3 m/s 763 mmHg 66%
    13:00 +20°C° 0 mm 3 m/s 762 mmHg 66%
    14:00 +20°C° 0 mm 3 m/s 762 mmHg 65%
    15:00 +20°C° 0 mm 3 m/s 762 mmHg 65%
    16:00 +19°C° 0 mm 3 m/s 762 mmHg 68%
    17:00 +19°C° 0 mm 4 m/s 761 mmHg 72%
    18:00 +18°C° 0 mm 4 m/s 761 mmHg 75%
    19:00 +17°C° 0 mm 3 m/s 761 mmHg 80%
    20:00 +14°C° 0 mm 3 m/s 761 mmHg 85%
    21:00 +13°C° 0 mm 2 m/s 761 mmHg 90%
    22:00 +13°C° 0 mm 2 m/s 761 mmHg 89%
    23:00 +13°C° 0 mm 2 m/s 760 mmHg 88%

    1 Juin, Lundi

    Heure Température Précipitation Vent Pression Humidité
    00:00 +13°C° 0 mm 2 m/s 760 mmHg 87%
    01:00 +13°C° 0 mm 2 m/s 760 mmHg 86%
    02:00 +13°C° 0 mm 2 m/s 760 mmHg 86%
    03:00 +13°C° 0 mm 2 m/s 759 mmHg 86%
    04:00 +13°C° 0 mm 2 m/s 759 mmHg 86%
    05:00 +13°C° 0 mm 2 m/s 759 mmHg 86%
    06:00 +14°C° 0 mm 2 m/s 759 mmHg 86%
    07:00 +15°C° 0 mm 2 m/s 759 mmHg 82%
    08:00 +16°C° 0 mm 2 m/s 759 mmHg 78%
    09:00 +17°C° 0 mm 3 m/s 759 mmHg 74%
    10:00 +18°C° 0 mm 3 m/s 759 mmHg 72%
    11:00 +18°C° 0 mm 4 m/s 759 mmHg 70%
    12:00 +19°C° 0 mm 4 m/s 759 mmHg 68%
    13:00 +19°C° 0 mm 4 m/s 759 mmHg 68%
    14:00 +19°C° 0 mm 4 m/s 759 mmHg 67%
    15:00 +19°C° 0 mm 4 m/s 758 mmHg 66%
    16:00 +18°C° 0 mm 4 m/s 758 mmHg 69%
    17:00 +18°C° 0 mm 3 m/s 758 mmHg 72%
    18:00 +17°C° 0 mm 3 m/s 758 mmHg 74%
    19:00 +16°C° 0 mm 2 m/s 758 mmHg 79%
    20:00 +14°C° 0 mm 2 m/s 759 mmHg 83%
    21:00 +13°C° 0 mm 2 m/s 759 mmHg 87%
    22:00 +12°C° 0 mm 2 m/s 759 mmHg 88%
    23:00 +12°C° 0 mm 2 m/s 759 mmHg 88%
    Voir plus